PE4KH-1 Weather Reports


Display with metric or nautical units.
time (UTC)temp
F
wind
direction
speed
MPH
gust
MPH
rain 1hr
in
rain 24hr
in
rain mn
in
humidity
%
barometer
mb
20260504223306 61 0.0 0.0 0.00 0.00 0.00 997.3
20260504222304 61 0.0 0.0 0.00 0.00 0.00 997.3
20260504221304 61 0.0 0.0 0.00 0.00 0.00 997.3
20260504220306 62 0.0 0.0 0.00 0.00 0.00 997.3
20260504215306 62 0.0 0.0 0.00 0.00 0.00 997.3
20260504214302 62 0.0 0.0 0.00 0.00 0.00 997.5
20260504213301 62 0.0 0.0 0.00 0.00 0.00 997.5
20260504212305 62 0.0 0.0 0.00 0.00 0.00 997.5
20260504211303 62 0.0 0.0 0.00 0.00 0.00 997.7
20260504210304 63 0.0 0.0 0.00 0.00 0.00 997.5
20260504205306 62 0.0 0.0 0.00 0.00 0.00 997.5
20260504204306 63 0.0 0.0 0.00 0.00 0.00 997.5
20260504203306 63 0.0 0.0 0.00 0.00 0.00 997.5
20260504202306 63 0.0 0.0 0.00 0.00 0.00 997.5
20260504201304 64 0.0 0.0 0.00 0.00 0.00 997.7
20260504200306 64 0.0 0.0 0.00 0.00 0.00 997.3
20260504195304 64 0.0 0.0 0.00 0.00 0.00 997.3
20260504194305 64 0.0 0.0 0.00 0.00 0.00 997.3
20260504193305 65 0.0 0.0 0.00 0.00 0.00 997.3
20260504192305 65 0.0 0.0 0.00 0.00 0.00 997.0
20260504191301 65 0.0 0.0 0.00 0.00 0.00 997.0
20260504190303 65 0.0 0.0 0.00 0.00 0.00 997.0
20260504185302 65 0.0 0.0 0.00 0.00 0.00 997.0
20260504184305 66 0.0 0.0 0.00 0.00 0.00 997.0
20260504183302 66 0.0 0.0 0.00 0.00 0.00 997.0
20260504182304 66 0.0 0.0 0.00 0.00 0.00 997.0
20260504181302 66 0.0 0.0 0.00 0.00 0.00 996.8
20260504180304 67 0.0 0.0 0.00 0.00 0.00 996.8
20260504175305 67 0.0 0.0 0.00 0.00 0.00 996.8
20260504174303 67 0.0 0.0 0.00 0.00 0.00 996.8
20260504173303 67 0.0 0.0 0.00 0.00 0.00 996.8
20260504172303 68 0.0 0.0 0.00 0.00 0.00 996.8
20260504171305 68 0.0 0.0 0.00 0.00 0.00 996.8
20260504170305 69 0.0 0.0 0.00 0.00 0.00 996.8
20260504160305 70 0.0 0.0 0.00 0.00 0.00 996.4
20260504150303 72 0.0 0.0 0.00 0.00 0.00 996.4
20260504141304 71 0.0 0.0 0.00 0.00 0.00 996.8
20260504140304 71 0.0 0.0 0.00 0.00 0.00 996.8
20260504130302 71 0.0 0.0 0.00 0.00 0.00 997.0
20260504120305 70 0.0 0.0 0.00 0.00 0.00 997.0
20260504110304 69 0.0 0.0 0.00 0.00 0.00 997.5
20260504100304 66 0.0 0.0 0.00 0.00 0.00 997.7
20260504081304 63 0.0 0.0 0.00 0.00 0.00 997.3
20260504080304 63 0.0 0.0 0.00 0.00 0.00 997.0
20260504070304 62 0.0 0.0 0.00 0.00 0.00 996.8
20260504050309 60 0.0 0.0 0.00 0.00 0.00 995.9
20260504045306 60 0.0 0.0 0.00 0.00 0.00 995.9
20260504044305 60 0.0 0.0 0.00 0.00 0.00 995.9
20260504043302 60 0.0 0.0 0.00 0.00 0.00 995.9
20260504042304 60 0.0 0.0 0.00 0.00 0.00 995.9
20260504041306 60 0.0 0.0 0.00 0.00 0.00 995.7
20260504040304 60 0.0 0.0 0.00 0.00 0.00 995.9
20260504035306 60 0.0 0.0 0.00 0.00 0.00 995.9
20260504034306 60 0.0 0.0 0.00 0.00 0.00 995.9
20260504033304 59 0.0 0.0 0.00 0.00 0.00 996.2
20260504032304 59 0.0 0.0 0.00 0.00 0.00 996.4
20260504031305 59 0.0 0.0 0.00 0.00 0.00 995.9
20260504030304 60 0.0 0.0 0.00 0.00 0.00 995.9
20260504025306 59 0.0 0.0 0.00 0.00 0.00 995.9
20260504024302 59 0.0 0.0 0.00 0.00 0.00 995.9
20260504023306 60 0.0 0.0 0.00 0.00 0.00 995.7
20260504022304 59 0.0 0.0 0.00 0.00 0.00 995.7
20260504021306 59 0.0 0.0 0.00 0.00 0.00 995.5
20260504020302 60 0.0 0.0 0.00 0.00 0.00 995.7
20260504015304 60 0.0 0.0 0.00 0.00 0.00 995.7
20260504014304 60 0.0 0.0 0.00 0.00 0.00 995.7
20260504013303 60 0.0 0.0 0.00 0.00 0.00 995.7
20260504012304 60 0.0 0.0 0.00 0.00 0.00 995.7
20260504011306 60 0.0 0.0 0.00 0.00 0.00 995.7
20260504010305 60 0.0 0.0 0.00 0.00 0.00 995.7
20260504005304 60 0.0 0.0 0.00 0.00 0.00 995.5
20260504004302 61 0.0 0.0 0.00 0.00 0.00 995.5
20260504003302 61 0.0 0.0 0.00 0.00 0.00 995.7
20260504002303 61 0.0 0.0 0.00 0.00 0.00 995.7
20260504001305 61 0.0 0.0 0.00 0.00 0.00 995.7
20260504000303 61 0.0 0.0 0.00 0.00 0.00 995.7
20260503235304 61 0.0 0.0 0.00 0.00 0.00 995.7
20260503234305 61 0.0 0.0 0.00 0.00 0.00 995.9
20260503233304 61 0.0 0.0 0.00 0.00 0.00 995.9
20260503232305 62 0.0 0.0 0.00 0.00 0.00 995.9
20260503231304 62 0.0 0.0 0.00 0.00 0.00 995.7
20260503230302 62 0.0 0.0 0.00 0.00 0.00 995.5
20260503225306 62 0.0 0.0 0.00 0.00 0.00 995.7
20260503224306 62 0.0 0.0 0.00 0.00 0.00 995.7